Weather History for KEFT - July, 2013

Change the Weather History Date:

Sunday, July 21, 2013

  Actual Average Record
Temperature  
Mean Temperature 74 °F -  
Max Temperature 86 °F 98 °F 98 °F (1972)
Min Temperature 62 °F 70 °F 51 °F (2000)
Cooling Degree Days 8    
Growing Degree Days 24 (Base 50)    
Moisture  
Dew Point 64 °F    
Average Humidity 85    
Maximum Humidity 100    
Minimum Humidity 48    
Precipitation  
Precipitation 0.01 in - - ()
Sea Level Pressure  
Sea Level Pressure 29.94 in    
Wind  
Wind Speed 7 mph (East)    
Max Wind Speed 20 mph    
Max Gust Speed 26 mph    
Visibility 10 miles    
Events Thunderstorm    
Averages and records for this station are not official NWS values.
T = Trace of Precipitation, MM = Missing Value Source: NWS Daily Summary

Daily Weather History Graph

Daily Weather History Graph

Search for Another Location

Airport or City:

Trip Planner

Search our weather history database for the weather conditions in past years. The results will help you decide how hot, cold, wet, or windy it might be!

Date:

Astronomy

Jul. 21, 2013 Rise Set
Actual Time 5:39 AM CDT 8:29 PM CDT
Civil Twilight 5:06 AM CDT 9:02 PM CDT
Nautical Twilight 4:24 AM CDT 9:44 PM CDT
Astronomical Twilight 3:35 AM CDT 10:32 PM CDT
Moon 7:26 PM CDT (7/21) 4:25 AM CDT (7/21)
Length of Visible Light 15h 56m
Length of Day
14h 49m
Waxing Gibbous, 98% of the Moon is Illuminated
Jul 21
Waxing Gibbous
Jul 22
Full
Jul 29
Last Quarter
Aug 6
New
Aug 14
First Quarter

Hourly Weather History & Observations

Time (CDT) Temp. Heat Index Dew Point Humidity Pressure Visibility Wind Dir Wind Speed Gust Speed Precip Events Conditions
12:15 AM 67.1 °F - 67.1 °F 100% 29.97 in 10.0 mi East 4.6 mph - N/A   Clear
12:35 AM 66.6 °F - 66.6 °F 100% 29.96 in 10.0 mi East 6.9 mph - N/A   Clear
12:55 AM 65.8 °F - 65.8 °F 100% 29.96 in 10.0 mi ENE 5.8 mph - N/A   Clear
1:15 AM 65.3 °F - 65.3 °F 100% 29.96 in 10.0 mi ENE 6.9 mph - N/A   Clear
1:35 AM 65.1 °F - 65.1 °F 100% 29.96 in 10.0 mi ENE 3.5 mph - N/A   Scattered Clouds
1:55 AM 63.9 °F - 63.9 °F 100% 29.96 in 10.0 mi NE 5.8 mph - N/A   Clear
2:15 AM 63.5 °F - 63.5 °F 100% 29.97 in 10.0 mi NE 5.8 mph - N/A   Clear
2:35 AM 63.5 °F - 63.5 °F 100% 29.95 in 10.0 mi ENE 6.9 mph - N/A   Clear
2:55 AM 63.5 °F - 63.5 °F 100% 29.96 in 10.0 mi ENE 5.8 mph - N/A   Clear
3:15 AM 63.5 °F - 63.5 °F 100% 29.95 in 10.0 mi ENE 6.9 mph - N/A   Clear
3:35 AM 62.6 °F - 62.6 °F 100% 29.96 in 10.0 mi NE 5.8 mph - N/A   Clear
3:55 AM 62.6 °F - 62.6 °F 100% 29.96 in 10.0 mi NE 6.9 mph - N/A   Clear
4:15 AM 62.8 °F - 62.8 °F 100% 29.95 in 10.0 mi ENE 6.9 mph - N/A   Mostly Cloudy
4:35 AM 63.0 °F - 63.0 °F 100% 29.95 in 10.0 mi ENE 6.9 mph - N/A   Mostly Cloudy
4:55 AM 63.3 °F - 63.3 °F 100% 29.97 in 10.0 mi East 3.5 mph - N/A   Mostly Cloudy
5:15 AM 63.0 °F - 63.0 °F 100% 29.96 in 10.0 mi ENE 4.6 mph - N/A   Mostly Cloudy
5:35 AM 62.6 °F - 62.6 °F 100% 29.96 in 10.0 mi ENE 4.6 mph - N/A   Scattered Clouds
5:55 AM 62.6 °F - 62.6 °F 100% 29.97 in 10.0 mi East 3.5 mph - N/A   Mostly Cloudy
6:15 AM 62.6 °F - 62.6 °F 100% 29.97 in 10.0 mi East 3.5 mph - N/A   Scattered Clouds
6:35 AM 63.0 °F - 63.0 °F 100% 29.96 in 10.0 mi ENE 5.8 mph - N/A   Clear
6:55 AM 65.1 °F - 64.0 °F 96% 29.97 in 10.0 mi East 4.6 mph - N/A   Clear
7:15 AM 65.3 °F - 64.6 °F 98% 29.97 in 10.0 mi ENE 3.5 mph - N/A   Clear
7:35 AM 66.6 °F - 64.6 °F 93% 29.97 in 10.0 mi East 5.8 mph - N/A   Clear
7:55 AM 67.3 °F - 65.5 °F 94% 29.97 in 10.0 mi East 5.8 mph - N/A   Clear
8:15 AM 68.9 °F - 64.2 °F 85% 29.97 in 10.0 mi East 6.9 mph - N/A   Clear
8:35 AM 70.2 °F - 61.0 °F 73% 29.98 in 10.0 mi East 6.9 mph - N/A   Clear
8:55 AM 71.6 °F - 61.5 °F 70% 29.98 in 10.0 mi ESE 6.9 mph - N/A   Clear
9:15 AM 73.0 °F - 62.1 °F 68% 29.98 in 10.0 mi ESE 8.1 mph - N/A   Clear
9:35 AM 74.7 °F - 62.4 °F 66% 29.98 in 10.0 mi SE 6.9 mph - N/A   Clear
9:55 AM 76.1 °F - 63.3 °F 64% 29.98 in 10.0 mi SE 8.1 mph - N/A   Clear
10:15 AM 76.3 °F - 63.5 °F 64% 29.97 in 10.0 mi SSE 8.1 mph - N/A   Clear
10:35 AM 77.7 °F - 64.0 °F 63% 29.97 in 10.0 mi SSE 9.2 mph - N/A   Clear
10:55 AM 78.8 °F - 64.4 °F 61% 29.97 in 10.0 mi SSE 4.6 mph - N/A   Clear
11:15 AM 80.6 °F 82.4 °F 65.1 °F 59% 29.97 in 10.0 mi SE 5.8 mph - N/A   Clear
11:35 AM 80.8 °F 82.5 °F 64.9 °F 58% 29.97 in 10.0 mi South 5.8 mph - N/A   Clear
11:55 AM 81.7 °F 83.5 °F 65.1 °F 57% 29.96 in 10.0 mi SSE 8.1 mph - N/A   Scattered Clouds
12:15 PM 82.0 °F 83.8 °F 64.9 °F 56% 29.96 in 10.0 mi South 6.9 mph - N/A   Clear
1:15 PM 82.6 °F 84.5 °F 65.3 °F 56% 29.94 in 10.0 mi SSE 5.8 mph - N/A   Mostly Cloudy
1:35 PM 83.3 °F 85.1 °F 65.3 °F 54% 29.94 in 10.0 mi SSE 8.1 mph - N/A   Mostly Cloudy
1:55 PM 84.0 °F 85.8 °F 64.9 °F 53% 29.93 in 10.0 mi South 8.1 mph - N/A   Scattered Clouds
2:15 PM 85.3 °F 86.8 °F 64.6 °F 50% 29.92 in 10.0 mi SSW 13.8 mph - N/A   Scattered Clouds
2:35 PM 83.8 °F 85.3 °F 64.6 °F 52% 29.91 in 10.0 mi SSW 12.7 mph - N/A   Scattered Clouds
2:55 PM 85.8 °F 87.1 °F 63.9 °F 48% 29.91 in 10.0 mi South 10.4 mph - N/A   Scattered Clouds
3:15 PM 83.8 °F 85.1 °F 64.0 °F 51% 29.90 in 10.0 mi SSW 13.8 mph - N/A   Scattered Clouds
3:35 PM 83.8 °F 85.6 °F 64.9 °F 53% 29.89 in 10.0 mi South 13.8 mph - N/A   Scattered Clouds
3:55 PM 84.7 °F 86.6 °F 65.5 °F 52% 29.89 in 10.0 mi South 13.8 mph 18.4 mph N/A   Scattered Clouds
4:15 PM 84.2 °F 85.4 °F 63.7 °F 50% 29.88 in 10.0 mi SSW 15.0 mph 18.4 mph N/A   Scattered Clouds
4:35 PM 83.1 °F 84.6 °F 64.6 °F 53% 29.90 in 10.0 mi SW 11.5 mph - N/A   Mostly Cloudy
4:55 PM 77.5 °F - 66.2 °F 68% 29.92 in 10.0 mi NNW 6.9 mph - N/A Thunderstorm Thunderstorm
5:15 PM 69.8 °F - 63.1 °F 79% 29.94 in 10.0 mi North 15.0 mph 19.6 mph N/A   Overcast
5:35 PM 68.2 °F - 66.7 °F 95% 29.94 in 10.0 mi NNE 15.0 mph 19.6 mph N/A Thunderstorm Overcast
5:55 PM 68.0 °F - 67.3 °F 98% 29.94 in 10.0 mi NNE 17.3 mph 21.9 mph N/A   Overcast
6:15 PM 66.9 °F - 66.9 °F 100% 29.93 in 10.0 mi NE 12.7 mph 17.3 mph 0.01 in   Overcast
6:35 PM 67.3 °F - 67.3 °F 100% 29.92 in 10.0 mi NE 19.6 mph 26.5 mph 0.01 in   Mostly Cloudy
6:55 PM 66.4 °F - 66.4 °F 100% 29.93 in 10.0 mi NE 13.8 mph 18.4 mph 0.01 in   Scattered Clouds
7:15 PM 65.8 °F - 65.8 °F 100% 29.93 in 10.0 mi ENE 9.2 mph 19.6 mph N/A   Clear
7:35 PM 65.3 °F - 65.3 °F 100% 29.92 in 10.0 mi ENE 9.2 mph 17.3 mph N/A   Scattered Clouds
7:55 PM 65.3 °F - 65.3 °F 100% 29.92 in 10.0 mi ENE 9.2 mph - N/A   Clear
8:15 PM 64.9 °F - 64.9 °F 100% 29.92 in 10.0 mi ENE 9.2 mph - N/A   Clear
8:35 PM 64.9 °F - 64.9 °F 100% 29.93 in 10.0 mi ENE 6.9 mph - N/A   Clear
8:55 PM 64.6 °F - 64.6 °F 100% 29.92 in 10.0 mi ENE 5.8 mph - N/A   Clear
9:15 PM 64.4 °F - 64.4 °F 100% 29.92 in 10.0 mi East 6.9 mph - N/A   Clear
9:35 PM 64.4 °F - 64.4 °F 100% 29.93 in 10.0 mi East 8.1 mph - N/A   Scattered Clouds
9:55 PM 64.4 °F - 64.4 °F 100% 29.92 in 10.0 mi ENE 5.8 mph - N/A   Mostly Cloudy
10:15 PM 64.4 °F - 64.4 °F 100% 29.92 in 10.0 mi East 6.9 mph - N/A   Scattered Clouds
10:35 PM 64.6 °F - 64.6 °F 100% 29.91 in 10.0 mi East 4.6 mph - N/A   Clear
10:55 PM 64.4 °F - 64.4 °F 100% 29.91 in 10.0 mi East 3.5 mph - N/A   Scattered Clouds
11:15 PM 64.6 °F - 64.6 °F 100% 29.91 in 10.0 mi ESE 4.6 mph - N/A   Scattered Clouds
11:35 PM 64.9 °F - 64.9 °F 100% 29.91 in 10.0 mi ESE 3.5 mph - N/A   Clear
11:55 PM 65.3 °F - 65.3 °F 100% 29.91 in 10.0 mi SE 4.6 mph - N/A   Clear